Preview of NWS' New Version of Forecast
This preview is not operational and should not be used for support decisions.

Regional Weather Roundup (RWR)

Issued by National Weather Service (NWS)

                            
000
ASUS43 KLSX 181507
RWRMO 

WEATHER SUMMARY FOR MISSOURI
NATIONAL WEATHER SERVICE SPRINGFIELD MO
900 AM CST MON FEB 18 2019

NOTE: "FAIR" INDICATES FEW OR NO CLOUDS BELOW 12,000 FEET WITH NO
       SIGNIFICANT WEATHER AND/OR OBSTRUCTIONS TO VISIBILITY.
       CURRENT SKY AND/OR WEATHER CONDITIONS ARE NOT AVAILABLE FOR
       CHILLICOTHE AND FARMINGTON.

MOZ001>031-035>038-043-044-053-054-181600-
...NORTHERN AND WESTERN MISSOURI...
  
CITY           SKY/WX    TMP DP  RH WIND       PRES   REMARKS
KANSAS CTY INT CLOUDY    15  10  80 W8        30.43R WCI   4          
KANSAS C DTWN  CLOUDY    16  10  77 W7        30.45R WCI   6          
LEE'S SUMMIT   CLOUDY    17  15  92 NW8       30.42R WCI   7          
ST JOSEPH      CLOUDY    16  12  84 N9        30.44R WCI   4          
CHILLICOTHE      N/A     22  16  78 NW7       30.42R WCI  13          
KIRKSVILLE     CLOUDY    22  19  89 NW9       30.38R WCI  12          
     
$$
MOZ066>068-077>081-088>096-101>105-181600-
...SOUTHWEST MISSOURI...
  
CITY           SKY/WX    TMP DP  RH WIND       PRES   REMARKS
SPRINGFIELD    MOSUNNY   20  15  81 N10       30.37R WCI   9          
JOPLIN         MOSUNNY   21  16  81 N10       30.44R WCI  10          
BRANSON        MOSUNNY   23  16  74 N7        30.39R WCI  15          
               
$$
MOZ032>034-039>042-045>050-055>058-069>072-181600-
...CENTRAL MISSOURI...  
  
CITY           SKY/WX    TMP DP  RH WIND       PRES   REMARKS
COLUMBIA       CLOUDY    22  16  78 NW10      30.39R WCI  11          
JEFFERSON CITY CLOUDY    24  15  68 NW12      30.41R WCI  13          
ROLLA          CLOUDY    23  15  71 NW10      30.35R WCI  12          
SEDALIA        LGT SNOW  18  15  88 NW16      30.41R FOG     WCI   3  
WHITEMAN AFB   FLURRIES  18  14  87 N14       30.37S WCI   4          
WARRENSBURG    LGT SNOW  18  14  86 NW10      30.42R WCI   6          
OSAGE BEACH    PTSUNNY   26  18  71 VRB7      30.40R WCI  18          
               
$$
MOZ051-052-059>065-181600-
...EAST CENTRAL MISSOURI...
  
CITY           SKY/WX    TMP DP  RH WIND       PRES   REMARKS
ST LOUIS INTL  CLOUDY    28  18  66 NW10      30.36R WCI  19          
SPIRIT OF STL  LGT SNOW  27  20  75 W9        30.37R WCI  18          
ST CHARLES     CLOUDY    28  20  71 W13       30.37R WCI  17          
                   
$$
MOZ072>076-082>087-097>100-106>115-181600-
...SOUTH CENTRAL AND SOUTHEAST MISSOURI...
  
CITY           SKY/WX    TMP DP  RH WIND       PRES   REMARKS
CAPE GIRARDEAU FAIR      30  19  63 N16G22    30.38R WCI  19          
FARMINGTON     CLOUDY    25  18  74 NW7       30.35R WCI  17          
POPLAR BLUFF   FAIR      30  20  66 NW12      30.39R WCI  20          
WEST PLAINS    SUNNY     25  18  74 NW8       30.36R WCI  16          
                                       
$$